TimeEST,TemperatureF,Dew PointF,Humidity,Sea Level PressureIn,VisibilityMPH,Wind Direction,Wind SpeedMPH,Gust SpeedMPH,PrecipitationIn,Events,Conditions,WindDirDegrees,DateUTC
12:51 AM,61.0,52.0,72,30.00,7.0,WSW,3.5,-,N/A,,Clear,240,2012-11-04 04:51:00
1:51 AM,61.0,52.0,72,29.99,7.0,WSW,4.6,-,N/A,,Clear,240,2012-11-04 05:51:00
1:51 AM,60.1,52.0,75,29.98,7.0,WSW,4.6,-,N/A,,Clear,240,2012-11-04 06:51:00
2:51 AM,62.1,53.1,72,29.99,7.0,West,4.6,-,N/A,,Clear,280,2012-11-04 07:51:00
3:51 AM,59.0,53.1,81,29.96,7.0,SW,4.6,-,N/A,,Clear,230,2012-11-04 08:51:00
4:51 AM,57.9,53.1,84,29.98,7.0,West,3.5,-,N/A,,Clear,260,2012-11-04 09:51:00
5:51 AM,55.9,53.1,90,29.99,7.0,WSW,3.5,-,N/A,,Clear,240,2012-11-04 10:51:00
6:51 AM,55.0,52.0,89,30.00,6.0,SW,3.5,-,N/A,,Clear,230,2012-11-04 11:51:00
7:51 AM,57.2,53.6,88,30.01,5.0,Calm,Calm,-,N/A,,Haze,0,2012-11-04 12:51:00
8:51 AM,61.0,54.0,78,30.01,5.0,WSW,3.5,-,N/A,,Haze,250,2012-11-04 13:51:00
9:51 AM,68.0,55.0,63,30.00,7.0,WNW,6.9,-,N/A,,Clear,290,2012-11-04 14:51:00
10:51 AM,71.6,55.4,57,30.00,8.0,West,11.5,17.3,N/A,,Scattered Clouds,260,2012-11-04 15:51:00
11:51 AM,73.0,55.9,55,29.97,8.0,WNW,8.1,21.9,N/A,,Clear,290,2012-11-04 16:51:00
12:51 PM,73.0,55.0,53,29.96,8.0,West,9.2,-,N/A,,Partly Cloudy,280,2012-11-04 17:51:00
1:51 PM,70.0,52.0,53,29.94,7.0,West,6.9,24.2,0.00,Rain,Light Rain,270,2012-11-04 18:51:00
2:51 PM,68.0,51.1,55,29.94,8.0,West,8.1,-,0.00,,Mostly Cloudy,280,2012-11-04 19:51:00
3:51 PM,66.0,52.0,60,29.95,8.0,West,9.2,17.3,0.00,,Mostly Cloudy,260,2012-11-04 20:51:00
4:51 PM,64.0,54.0,70,29.95,6.0,West,9.2,-,N/A,,Haze,280,2012-11-04 21:51:00
5:51 PM,62.1,52.0,70,29.96,7.0,West,4.6,-,N/A,,Scattered Clouds,270,2012-11-04 22:51:00
6:51 PM,60.1,51.1,72,29.97,7.0,WNW,5.8,-,N/A,,Clear,290,2012-11-04 23:51:00
7:51 PM,57.9,46.9,67,29.98,7.0,WNW,5.8,-,N/A,,Clear,290,2012-11-05 00:51:00
8:51 PM,57.0,45.0,64,29.98,8.0,WNW,9.2,-,N/A,,Clear,300,2012-11-05 01:51:00
9:51 PM,55.0,44.1,67,29.98,8.0,WNW,6.9,-,N/A,,Clear,300,2012-11-05 02:51:00
10:51 PM,53.1,43.0,69,29.98,8.0,NNW,4.6,-,N/A,,Clear,340,2012-11-05 03:51:00